Regional Weather Roundup
Issued by NWS

Home | Current Version | Previous Version | Text Only | Print | Product List | Glossary Off
Versions: 1 2 3 4 5 6 7 8 9 10 11 12 13 14 15 16 17 18 19 20 21 22 23 24 25 26 27 28 29 30 31 32 33 34 35 36 37 38 39 40 41 42 43 44 45 46 47 48 49 50

000
ASUS43 KDMX 170207
RWRIA

WEATHER ROUNDUP FOR IOWA
NATIONAL WEATHER SERVICE DES MOINES IA
800 PM CST TUE DEC 16 2014

NOTE: "FAIR" INDICATES FEW OR NO CLOUDS BELOW 12,000 FEET WITH NO
SIGNIFICANT WEATHER AND/OR OBSTRUCTIONS TO VISIBILITY.

* - THESE STATIONS ARE NOT NWS STATIONS...THUS NOT UNDER NWS
QUALITY CONTROL.  THEY ALSO DO NOT REPORT WEATHER SUCH
AS PRECIPITATION OR FOG.

IAZ001>003-012>014-020>022-031>034-043>046-170300-
   NORTHWEST IOWA

CITY           SKY/WX    TMP DP  RH WIND       PRES   REMARKS
CARROLL *      FLURRIES  19  14  79 N17       30.31S WCI   4
CHEROKEE *     CLEAR     14  12  92 N7        30.33S WCI   4
DENISON *      CLEAR     18  12  79 NW12      30.30F WCI   5
LE MARS *      MOCLDY    14  10  85 NW6       30.35F WCI   5
ORANGE CITY *  CLEAR     14  10  85 N7        30.32S WCI   4
SHELDON *      CLEAR     10   9  92 NW7       30.31S WCI   0
SIOUX CITY     CLEAR     18  13  80 N10       30.35S WCI   6
SPENCER        CLEAR     13   8  81 NW7       30.31S WCI   3
STORM LAKE *   CLOUDY    14  10  85 NW15      30.31R WCI  -1
$$

IAZ055>058-069>071-079>083-090>094-170300-
   SOUTHWEST IOWA

CITY           SKY/WX    TMP DP  RH WIND       PRES   REMARKS
ATLANTIC *     CLEAR     19  16  86 N6        30.32S WCI  11
AUDUBON *      CLEAR     18  10  73 NW7       30.31S WCI   8
CLARINDA *     CLEAR     23  18  80 NW8       30.36R WCI  14
COUNCIL BLFS * CLEAR     21  18  86 NW13G20   30.32S WCI   9
CRESTON *      CLEAR     21  18  86 N8        30.30S WCI  12
HARLAN  *      CLEAR     19  18  93 NW9       30.36S WCI   9
LAMONI         CLEAR     24  18  77 NW10      30.29S WCI  14
RED OAK *      CLEAR     23  18  80 NW8       30.34R WCI  14
SHENANDOAH *   CLEAR     23  18  80 NW7       30.35F WCI  15
$$

IAZ047>049-059>061-072>074-084-170300-
   CENTRAL IOWA

CITY           SKY/WX    TMP DP  RH WIND       PRES   REMARKS
AMES           CLOUDY    19  11  70 NW18      30.31R WCI   4
ANKENY *       CLOUDY    23  16  74 NW17      30.31R WCI   9
CHARITON *     CLOUDY    25  19  80 NW12      30.30R WCI  14
DES MOINES     CLOUDY    24  16  71 NW20      30.31R WCI  10
GRINNELL*      CLOUDY    19  14  79 NW17G24   30.29R WCI   4
KNOXVILLE *    CLOUDY    25  18  74 NW16      30.28R WCI  12
MARSHALLTOWN   CLOUDY    17  11  77 NW18      30.29R WCI   1
PELLA *        CLOUDY    25  18  74 NW15G21   30.31R WCI  12
PERRY *        CLOUDY    21  18  86 N14G22    30.32R WCI   8
$$

IAZ004>006-015-016-023>025-035-036-170300-
   NORTH CENTRAL IOWA

CITY           SKY/WX    TMP DP  RH WIND       PRES   REMARKS
ALGONA *       FLURRIES  16  10  79 NW14      30.31R WCI   1
CLARION *      FLURRIES  16  12  86 NW15      30.30S WCI   1
ESTHERVILLE    CLOUDY    12   8  84 NW16      30.30R WCI  -5
FORT DODGE *   PTCLDY    12   5  73 NW7G16    30.32R WCI   2
MASON CITY     CLOUDY    16  12  84 NW13      30.28R WCI   2
FOREST CITY *  FLURRIES  18  12  79 NW15      30.27S WCI   3
IOWA FALLS *   FLURRIES  16  10  79 NW16G24   30.30R WCI   0
$$

IAZ007>011-017>019-026>030-037>042-050>054-066-170300-
   NORTHEAST IOWA

CITY           SKY/WX    TMP DP  RH WIND       PRES   REMARKS
CEDAR RAPIDS   CLOUDY    19  14  81 NW21      30.25R WCI   3
CHARLES CITY * FLURRIES  19  14  79 NW14G22   30.25R WCI   6
CLINTON *      CLOUDY    25  19  80 NW23      30.22R WCI  10
DECORAH *      FLURRIES  21  16  79 NW14      30.18R WCI   8
DUBUQUE        CLOUDY    23  20  88 NW15G23   30.17R WCI  10
MONTICELLO *   CLOUDY    23  19  86 NW21      30.21R WCI   8
OELWEIN *      FLURRIES  19  16  86 NW16G23   30.23R WCI   5
WATERLOO       FLURRIES  18  12  77 NW15      30.27R WCI   4
$$

IAZ064-065-067-068-078-170300-
   EAST CENTRAL IOWA

CITY           SKY/WX    TMP DP  RH WIND       PRES   REMARKS
DAVENPORT      CLOUDY    24  18  77 W23G30    30.22R WCI   9
IOWA CITY      CLOUDY    20  14  77 NW18G24   30.28R WCI   5
MT. PLEASANT * CLOUDY    23  18  80 NW13G20   30.28R WCI  11
MUSCATINE *    CLOUDY    23  18  80 W20       30.28R WCI   8
QUAD CITIES    CLOUDY    25  18  74 W15       30.22R WCI  13
$$

IAZ062-063-075>077-085>089-095>099-170300-
   SOUTHEAST IOWA

CITY           SKY/WX    TMP DP  RH WIND       PRES   REMARKS
BURLINGTON     CLOUDY    25  19  78 NW18      30.26R WCI  11
FAIRFIELD *    CLOUDY    25  18  74 NW15      30.28R WCI  12
FORT MADISON * CLOUDY    27  21  80 W20       30.27R WCI  13
KEOKUK *       CLOUDY    27  21  80 NW12      30.27R WCI  16
OSKALOOSA *    CLOUDY    23  18  80 NW15      30.29R WCI  10
CENTERVILLE *  CLOUDY    27  21  80 NW12      30.30S WCI  16
OTTUMWA        CLOUDY    24  17  74 NW16      30.28R WCI  11
WASHINGTON *   CLOUDY    23  19  86 W17G25    30.27R WCI   9
$$

ABBREVIATIONS USED IN REMARKS
   TC - TEMPERATURES IN CELSIUS
  WCI - WIND CHILL INDEX
   HX - HEAT INDEX
  VSB - VISIBILITY
$$




USA.gov is the U.S. government's official web portal to all federal, state and local government web resources and services.